Location: El Mouella
(16.4949°N, 9.1594°W)
Time: 17:33:32
(UTC+00:00)

Cosmos 1515 - Pass Details

Date: 02 June 2020
Orbit: 505 x 517 km, 82.5° (Epoch: 04 July)

Event Time Altitude Azimuth Distance (km) Brightness Sun altitude
Rises 20:00:48 0° 180° (S) 2,620 7.0 -12.5°
Reaches altitude 10° 20:02:56 10° 178° (S) 1,734 6.1 -13.0°
Maximum altitude 20:06:43 72° 94° (E) 541 3.6 -13.8°
Drops below altitude 10° 20:10:30 10° 10° (N) 1,732 6.6 -14.6°
Sets 20:12:38 0° 8° (N) 2,617 7.6 -15.0°
